Theta_e
301 295 293 292 294 296 299 300 300 301 301 300 300 300 299 299 300 302 304 308 313 312 312 314 315 315 316 323 326 329 330 329 328 329 330 331 331 332 333 333 334 335 336 340 342 343 343 344 345 346 347 347 347 347 346 345 346 347 347 348 347 349 350 349 349 348 347 345 344 343 342 342 344 347 348 349 350 351 353 354 356 357 357 357 358 359
301 294 294 296 296 296 297 300 300 300 301 300 299 298 298 299 299 304 304 307 310 309 307 312 313 314 315 323 326 328 328 326 327 327 328 330 331 332 332 332 333 335 338 339 339 341 342 343 344 345 346 347 344 345 346 345 346 347 347 347 347 349 349 349 349 349 349 348 346 344 343 343 344 345 347 346 349 351 353 355 356 357 357 357 357 360
295 294 297 299 298 298 299 300 301 301 300 300 298 297 296 297 300 303 304 306 308 310 305 307 310 312 314 320 326 327 327 328 329 329 329 329 330 330 331 332 333 334 334 337 338 340 341 342 343 344 345 345 346 345 345 345 346 346 347 347 348 348 348 349 350 349 348 349 349 347 346 345 344 347 349 349 351 353 353 355 356 357 357 357 357 358
292 296 300 300 299 298 299 301 301 300 301 300 299 296 295 297 298 298 304 306 306 307 302 305 307 310 313 319 325 328 328 328 330 330 330 331 330 330 331 332 332 332 333 334 336 337 340 341 342 343 344 345 345 345 345 345 345 346 347 347 348 348 349 349 350 351 350 351 350 350 349 348 348 349 353 353 353 352 354 354 356 357 357 357 357 357
296 297 301 300 300 299 298 300 299 299 298 301 300 299 298 297 298 300 300 301 303 303 307 305 306 301 307 312 318 325 329 328 329 330 330 331 332 332 333 333 333 332 333 334 335 337 338 340 341 342 344 345 344 344 344 345 345 345 346 347 348 348 348 349 351 351 351 352 350 350 350 350 350 352 351 350 349 350 352 353 354 355 357 357 357 357
298 302 302 300 300 300 298 298 300 299 297 299 301 301 301 300 298 299 300 300 296 295 300 302 294 296 301 309 315 321 325 325 328 327 327 329 330 331 330 331 333 334 334 335 335 336 338 339 341 342 343 344 344 344 345 346 346 346 346 347 348 348 349 349 349 351 351 350 348 347 345 343 344 344 346 346 347 347 348 351 354 356 358 357 357 358
300 302 302 299 299 299 299 299 300 301 298 296 300 302 302 300 299 299 299 299 293 293 299 304 296 291 296 305 311 316 321 323 326 326 327 329 329 330 330 331 332 332 333 335 336 337 337 339 340 341 342 343 344 345 346 347 346 347 347 347 348 348 348 349 349 351 352 349 349 348 346 346 344 343 345 349 351 350 350 352 353 355 357 358 357 358
301 300 300 300 299 299 298 297 301 301 298 297 303 302 301 299 298 297 298 297 293 299 301 302 298 293 292 300 310 315 318 321 322 324 326 328 329 330 331 331 332 333 333 334 335 336 337 339 340 340 342 343 344 346 347 346 347 346 347 347 347 348 350 350 350 350 351 349 349 348 347 348 346 345 345 348 350 352 352 351 353 355 356 358 358 358
301 298 300 298 298 298 298 300 302 303 301 298 301 301 300 300 299 299 297 295 296 295 294 297 301 295 292 297 305 313 312 315 319 322 324 327 328 329 330 331 332 333 334 334 334 335 336 338 339 341 342 344 345 346 346 346 347 347 347 348 348 348 349 349 350 350 350 351 349 349 348 347 348 348 348 350 351 350 352 350 352 354 355 357 358 358
301 301 301 302 299 297 301 302 303 304 300 301 300 303 301 300 300 299 295 295 296 294 291 295 297 292 290 293 299 311 311 312 316 320 323 326 328 329 330 331 332 333 334 335 335 336 337 338 339 341 343 344 345 346 348 348 348 348 348 348 348 347 349 349 350 350 350 350 351 348 348 347 347 349 348 349 348 348 350 349 351 352 354 355 356 357
301 307 307 303 300 301 302 302 304 304 305 300 302 300 298 298 297 300 296 295 294 290 292 297 296 296 289 294 299 304 309 313 316 319 322 325 327 329 330 331 331 332 333 334 335 336 337 339 340 341 341 343 344 346 347 347 347 348 347 347 347 348 349 350 349 350 349 350 350 348 348 347 347 347 346 346 346 347 347 348 349 351 353 355 355 357
302 302 302 303 307 304 304 301 304 306 306 303 299 298 296 295 294 294 294 294 289 288 294 297 295 297 290 292 295 307 314 316 317 316 319 322 324 327 329 330 331 332 332 334 335 335 336 337 339 340 340 341 343 344 345 346 347 347 347 347 347 348 349 350 350 350 349 349 349 349 348 348 348 347 346 346 345 346 346 347 348 351 352 353 355 356
296 299 302 303 310 305 301 301 300 303 303 303 298 298 293 286 289 286 288 288 288 288 293 294 295 292 294 298 299 302 310 316 318 319 320 321 323 326 328 330 331 332 332 333 334 334 335 336 337 338 339 341 341 342 344 345 346 347 347 347 346 347 349 350 350 349 349 349 349 349 348 348 349 348 347 347 347 347 346 347 347 349 350 352 353 354
292 299 301 303 304 307 304 298 295 296 299 300 298 295 291 286 284 282 285 284 283 288 293 294 294 293 295 298 304 304 306 314 319 321 322 322 323 325 327 329 331 332 332 333 334 334 335 336 337 338 339 340 341 342 343 344 346 346 347 347 346 346 349 350 350 350 349 349 350 350 349 349 349 348 348 347 347 347 347 347 347 348 350 351 352 353
285 287 296 300 298 305 304 302 301 297 299 300 302 298 295 292 286 283 282 284 286 286 291 293 292 288 292 295 303 305 308 310 318 322 323 323 324 325 327 328 330 331 332 333 333 334 334 335 337 337 339 339 340 341 342 344 345 346 346 346 347 346 348 349 350 350 350 349 350 350 350 350 350 349 348 348 348 348 347 347 347 348 350 351 353 354
287 288 294 299 299 302 303 305 305 300 298 301 303 302 294 295 293 288 286 285 288 288 290 289 290 292 297 299 306 306 307 307 314 319 322 322 324 324 324 325 327 329 331 332 333 333 334 335 336 337 338 339 340 341 342 343 344 345 345 346 347 346 347 349 350 350 350 350 350 350 350 350 350 351 350 349 350 349 348 348 348 348 349 351 353 355
287 286 296 296 299 299 303 306 305 305 293 297 300 296 298 300 299 294 295 295 291 286 289 290 290 291 294 298 299 301 303 305 309 314 318 320 322 323 323 325 326 328 330 332 332 333 334 335 336 337 338 339 340 340 341 343 344 345 345 345 346 347 347 348 350 350 350 351 350 350 350 350 350 350 349 348 348 348 348 349 348 348 348 351 353 353
284 284 293 294 295 300 303 302 305 306 301 298 295 299 301 303 301 296 288 288 287 284 284 286 292 290 292 293 300 300 301 304 307 311 315 319 321 321 323 324 326 327 329 332 333 334 335 335 336 336 338 339 340 340 341 343 344 345 346 346 345 346 346 347 349 349 350 350 350 350 350 350 350 349 349 349 348 349 348 348 348 349 348 348 351 353
291 284 291 296 296 298 301 300 300 305 306 302 299 304 300 290 292 295 292 286 284 284 281 286 290 291 292 294 295 298 299 302 305 309 313 316 319 321 322 324 326 328 329 330 332 333 334 334 335 336 336 338 340 341 341 343 344 345 345 346 346 345 346 347 349 350 350 351 350 350 350 350 350 350 350 350 350 350 348 347 347 348 348 349 351 353
292 286 289 296 295 297 298 296 293 298 303 306 302 302 301 296 295 291 293 288 289 283 284 285 287 289 294 295 297 299 300 302 304 305 309 314 318 321 322 323 325 326 328 330 331 333 334 335 336 336 336 337 338 340 341 342 343 344 345 346 346 346 347 347 348 350 349 350 350 350 351 351 350 350 350 350 349 348 348 349 348 348 348 349 351 352
288 293 282 291 296 296 291 294 295 298 296 297 297 296 298 298 296 299 293 292 289 284 282 282 284 288 293 296 299 301 301 303 304 305 308 312 316 321 323 323 325 327 328 330 331 332 334 335 336 336 337 337 339 340 341 341 342 343 345 345 346 345 345 346 347 349 349 350 350 351 349 350 350 349 350 349 349 348 349 350 350 348 349 351 350 351
289 288 284 288 288 288 291 296 297 297 296 295 295 295 296 295 292 291 289 294 291 289 283 283 286 286 294 301 301 301 303 304 305 306 308 310 314 319 322 324 325 326 328 330 331 333 334 335 336 337 337 338 338 338 339 340 342 343 343 344 345 346 346 346 347 348 349 350 350 350 350 350 350 350 350 349 348 348 348 349 350 350 350 349 350 352
294 292 289 284 286 288 292 296 298 298 298 298 298 295 297 295 292 292 287 288 292 293 293 288 286 290 298 300 302 302 302 303 305 307 308 310 313 317 321 324 325 327 328 330 331 333 334 335 336 337 337 337 337 338 339 340 341 342 343 344 345 345 345 346 347 348 349 349 349 349 350 350 349 350 349 348 348 347 348 348 349 351 350 349 350 352
302 287 285 286 288 291 294 296 297 299 297 296 298 297 295 293 294 295 294 290 291 289 292 292 289 293 299 303 302 302 305 302 303 308 310 312 314 317 319 322 324 325 328 330 331 333 334 335 337 337 337 336 337 337 338 339 341 341 343 343 344 344 345 346 347 348 349 349 349 349 349 349 349 349 349 348 348 347 348 348 349 351 351 351 351 351
287 287 285 281 281 287 292 293 296 296 296 292 291 293 295 296 295 294 295 293 292 291 294 289 287 294 300 309 305 305 305 305 303 303 309 311 313 317 319 321 324 326 327 328 330 332 333 335 335 336 337 337 337 337 339 339 340 341 342 343 344 345 346 346 348 347 348 348 348 348 348 348 349 348 348 348 348 348 348 348 349 349 350 351 351 351
290 289 284 278 276 279 282 283 282 283 287 290 292 292 294 292 292 293 291 291 288 292 293 291 291 297 300 302 303 303 303 304 304 302 304 307 310 314 318 321 323 325 326 328 329 331 332 334 336 337 337 337 337 337 338 339 340 341 342 343 344 344 345 346 347 347 347 347 347 347 348 348 348 348 348 348 348 348 348 349 349 349 350 351 351 352
291 292 288 285 282 281 283 284 289 291 289 286 289 291 291 293 294 294 293 289 290 289 291 293 296 298 299 300 301 303 301 301 302 303 304 305 306 309 316 321 323 324 326 327 329 331 333 334 335 336 337 337 338 338 339 339 340 341 342 342 344 345 345 346 347 347 347 347 347 347 347 347 347 348 348 348 348 349 349 349 349 349 349 351 351 351
292 285 287 288 287 287 289 289 290 292 288 289 289 289 291 292 293 292 291 291 294 290 290 294 296 295 298 300 300 301 302 303 301 302 303 304 306 307 310 318 330 324 326 328 329 330 331 333 334 336 337 337 338 338 339 340 341 341 342 342 343 344 345 346 346 346 347 347 347 347 347 347 348 348 348 349 349 349 349 349 349 350 350 351 351 351
288 284 288 288 287 289 290 290 291 290 290 290 290 290 290 292 292 291 292 295 295 294 293 296 295 296 299 301 302 302 302 303 303 303 305 306 306 307 309 314 320 323 325 326 328 330 331 332 334 335 336 337 338 338 339 340 341 342 343 344 344 345 345 346 346 346 346 346 346 347 348 348 349 349 349 349 349 349 349 349 350 350 351 351 351 351
290 285 287 288 287 288 288 289 290 289 289 290 290 291 292 292 294 297 296 296 296 294 296 297 297 297 301 303 302 304 303 301 302 305 307 307 306 307 308 313 319 323 324 326 328 330 332 333 334 335 336 337 337 338 339 340 341 342 343 343 344 345 346 347 346 346 346 346 346 348 348 349 349 349 349 349 349 349 349 349 350 350 350 350 351 351
290 286 294 288 286 285 288 291 291 290 289 288 290 292 295 297 299 301 301 300 299 296 297 296 296 298 302 304 307 307 308 310 312 313 313 310 308 313 314 316 320 323 325 327 328 330 332 333 334 335 336 337 337 338 339 340 341 342 343 344 345 346 347 347 346 346 346 346 347 348 349 349 349 349 348 349 349 349 349 349 350 350 350 350 350 351
291 286 290 287 282 283 288 289 289 289 289 288 289 294 297 298 301 302 299 302 297 295 295 295 294 296 301 307 307 315 324 324 323 325 326 321 311 316 318 320 322 324 325 327 328 330 331 333 334 335 336 336 337 338 339 341 342 343 343 344 345 346 348 348 347 347 347 347 348 349 349 349 349 349 349 349 349 349 350 350 350 349 349 349 349 350
289 288 285 285 282 281 286 288 288 288 291 291 292 296 298 300 301 307 309 309 308 306 299 296 297 302 310 312 310 320 325 327 329 330 330 330 321 314 318 321 323 324 326 327 329 331 331 333 334 335 336 337 338 338 340 341 342 342 344 345 347 348 348 348 348 348 348 349 349 349 349 350 349 349 349 349 349 350 350 350 349 349 349 349 350 350
290 288 286 289 280 280 285 287 288 289 284 286 298 302 301 300 301 299 306 308 309 309 306 306 309 312 315 317 319 322 327 329 330 332 335 334 329 316 316 319 322 325 326 328 330 331 332 334 335 336 337 338 339 340 341 342 342 344 346 347 349 349 349 349 349 349 349 350 350 350 350 350 350 349 350 350 350 350 350 349 349 349 350 350 350 350
288 289 287 288 282 279 284 286 288 283 286 298 301 302 304 304 304 302 303 311 310 310 309 310 312 314 316 323 325 327 329 332 333 333 335 336 337 325 316 318 320 324 325 327 329 331 332 334 335 336 337 338 339 340 341 341 343 344 345 347 348 349 350 350 350 350 350 350 351 351 351 351 350 350 350 351 351 350 350 350 350 350 350 350 349 349
288 287 288 287 285 284 282 280 278 284 296 302 302 302 305 306 304 303 304 311 310 310 309 308 312 317 319 319 326 328 330 332 334 335 336 337 338 339 333 324 320 323 324 327 329 330 332 333 334 335 337 340 341 340 341 341 343 343 344 346 347 349 350 351 350 350 351 351 351 352 352 352 351 351 351 351 351 350 350 350 350 350 350 350 350 350
291 290 289 284 287 277 280 280 282 290 295 299 297 297 300 297 299 299 295 304 310 310 310 309 312 318 320 321 323 323 323 328 330 331 336 336 337 339 341 340 338 325 325 327 329 330 332 334 335 337 341 339 340 340 340 341 343 343 343 344 346 348 349 350 350 351 351 352 352 353 353 353 352 352 351 351 351 350 350 350 350 351 352 350 350 350
293 287 289 284 283 285 279 278 278 285 286 291 297 300 303 304 305 305 301 303 311 309 310 310 309 316 320 323 324 325 324 327 324 327 333 335 337 337 341 342 343 342 336 333 334 332 333 335 338 341 339 339 339 340 341 343 344 344 344 344 345 346 347 349 349 351 352 352 353 354 354 354 353 353 352 352 351 351 351 352 352 352 352 351 350 349
293 293 291 286 284 283 280 276 276 280 289 296 296 301 303 305 306 307 300 302 309 309 311 310 311 314 319 322 325 326 324 321 322 325 331 334 335 338 339 341 343 344 345 342 337 336 336 338 339 341 340 340 339 341 344 345 345 345 344 345 345 346 346 347 349 351 352 353 354 355 355 355 355 354 353 353 353 353 352 352 352 353 353 352 352 351
289 289 288 285 283 284 281 279 276 284 283 295 300 302 304 307 309 303 296 299 305 308 311 311 312 313 318 323 326 325 324 320 321 325 332 334 335 338 339 340 342 343 344 346 348 346 346 348 346 341 339 339 340 343 345 346 345 346 345 346 346 345 346 347 349 351 353 354 355 356 356 356 356 355 354 354 354 354 354 354 354 354 353 353 353 352
286 287 287 283 284 285 285 281 284 286 299 301 302 304 308 309 306 297 291 299 308 309 310 311 312 314 319 321 323 321 324 327 328 330 332 333 334 335 339 341 342 343 343 344 346 350 347 347 346 345 345 346 347 346 346 346 345 346 348 347 346 346 347 349 351 352 353 354 355 356 356 357 356 356 356 356 355 355 355 355 354 354 354 353 353 353
287 288 288 288 284 281 281 280 281 288 299 303 306 308 308 305 295 293 303 312 308 306 309 311 311 312 316 322 322 323 325 328 327 328 328 330 331 333 335 337 339 341 341 344 347 346 343 344 345 346 348 350 351 349 348 347 347 349 349 348 346 348 351 352 352 353 354 355 355 356 356 357 358 358 357 357 357 356 355 356 356 355 354 354 353 352
288 285 284 284 288 286 284 282 285 282 296 305 306 306 306 297 297 304 307 308 308 306 307 309 311 311 312 318 322 323 323 323 323 325 326 327 329 330 332 333 335 337 338 338 338 342 342 341 341 342 344 348 352 352 352 351 351 350 350 348 349 351 353 353 352 355 354 355 355 356 357 358 358 357 358 358 358 356 355 356 355 355 355 354 353 352
293 286 285 287 291 285 287 285 285 296 299 306 304 295 302 303 307 308 306 303 306 306 306 308 310 312 311 313 318 320 320 320 321 322 323 324 326 328 329 331 333 335 337 339 339 339 341 339 340 340 342 344 347 350 352 351 349 350 349 347 349 350 354 355 354 353 354 354 354 355 357 358 359 359 359 359 358 357 356 355 355 355 354 354 352 351
294 290 291 285 293 289 287 292 296 302 305 306 306 304 304 305 306 307 307 306 304 305 308 308 308 311 311 310 313 318 318 319 319 320 320 321 323 324 326 327 329 331 334 336 338 341 338 337 338 339 340 341 343 345 347 349 349 349 346 346 351 352 353 353 352 352 351 352 354 354 356 357 358 359 359 359 359 357 356 356 356 354 354 353 352 351
296 298 299 296 291 295 296 299 302 300 305 304 304 304 302 303 305 305 304 304 306 307 308 308 309 309 310 311 310 312 315 318 318 318 319 320 322 323 325 325 327 329 331 334 337 338 337 337 337 337 337 338 340 341 343 344 346 345 344 348 353 351 353 355 353 351 351 351 352 353 355 355 356 358 359 359 360 359 358 357 355 354 354 353 352 352
295 298 296 289 292 289 288 297 296 296 300 303 302 304 304 305 304 305 304 304 305 307 308 307 309 309 309 310 310 310 311 312 317 318 318 319 320 322 323 324 325 327 328 329 334 338 335 336 336 336 336 336 336 338 340 341 342 344 346 348 349 351 353 356 354 354 351 350 351 351 353 354 354 355 357 358 359 359 359 358 357 355 353 353 352 352
290 299 294 291 290 289 291 294 296 297 301 304 303 302 302 303 304 305 305 305 305 307 307 309 310 309 309 308 310 310 309 310 310 313 317 317 319 321 323 324 324 326 328 329 331 336 335 334 334 335 335 335 335 337 338 339 340 341 344 346 349 351 353 355 357 354 351 349 350 351 352 353 358 357 355 357 357 358 358 358 358 356 354 354 354 353
294 296 287 291 288 291 294 296 295 297 302 302 302 303 304 304 303 304 304 303 304 305 305 308 309 308 307 308 311 309 308 308 309 311 314 317 318 320 322 324 325 325 327 328 330 334 333 335 335 333 334 334 334 336 337 338 339 341 343 345 347 349 351 352 351 349 349 349 350 351 355 354 357 357 352 335 324 314 314 322 334 354 357 357 359 358
293 289 292 291 287 287 288 292 294 288 289 296 299 299 300 303 303 302 304 303 304 304 304 307 308 309 309 308 310 309 307 308 308 309 312 317 318 319 321 324 325 325 327 329 331 331 333 335 337 334 334 333 334 336 337 337 338 340 343 344 345 347 350 348 346 347 347 347 350 351 355 354 355 350 341 337 329 324 318 308 300 304 326 345 322 318
291 292 292 288 287 287 293 295 296 295 295 296 297 299 300 303 303 301 302 303 304 305 305 306 307 307 308 309 311 309 308 308 307 308 311 316 318 320 322 324 324 325 326 329 329 330 332 334 337 336 336 334 334 334 335 336 336 338 341 342 343 345 345 345 346 344 345 346 349 351 353 352 348 343 340 338 337 335 330 329 321 301 298 303 307 303
Wind_Speed
5 8 11 15 17 17 15 13 8 5 0 2 4 5 6 6 6 3 3 2 3 3 9 10 12 12 10 11 13 15 14 12 10 13 13 14 14 15 15 16 17 17 18 15 16 16 16 16 14 13 13 13 13 13 14 14 14 14 14 13 14 12 11 10 10 9 9 9 8 7 9 10 8 8 7 7 6 6 6 7 6 6 6 6 6 5
8 8 13 17 12 5 7 6 5 5 9 2 1 2 6 5 9 5 3 1 2 4 3 7 9 11 10 9 13 12 13 16 15 14 15 16 16 16 18 18 18 18 10 12 13 16 16 15 16 14 13 14 15 14 15 16 16 15 15 15 14 11 12 12 12 11 10 10 10 10 9 7 7 7 8 8 7 6 6 6 6 6 6 6 6 6
9 15 20 14 3 4 4 7 9 11 9 7 5 3 3 6 2 6 6 2 1 2 6 2 7 11 10 9 10 14 18 17 17 20 20 19 17 15 16 18 17 13 13 14 16 16 16 17 17 15 14 14 16 16 16 16 15 15 14 14 12 12 12 13 13 11 11 10 9 8 6 7 5 5 5 5 4 4 5 6 6 6 6 6 6 6
6 14 20 6 7 7 5 6 9 9 9 9 8 6 9 2 4 6 6 1 2 6 2 4 7 9 7 3 11 17 19 16 18 19 18 19 21 20 21 20 17 16 15 17 18 19 18 17 16 15 15 15 14 14 14 15 16 14 13 13 13 13 13 11 12 13 11 10 7 6 4 5 5 4 3 3 3 4 5 6 6 6 6 7 6 6
14 3 4 8 8 10 10 8 9 9 10 9 10 9 7 5 4 2 3 2 2 2 2 1 2 5 3 3 6 11 12 8 10 11 9 11 14 16 11 10 13 17 17 17 17 16 17 19 19 19 16 14 15 15 15 16 15 12 16 15 15 13 13 12 12 13 10 8 7 5 4 4 4 3 5 5 4 5 6 6 6 8 6 6 6 6
11 11 5 16 13 10 10 9 11 8 8 8 10 11 8 5 5 3 3 5 6 4 2 7 2 6 5 8 13 10 9 12 9 11 14 16 15 11 13 17 16 15 13 17 20 20 20 19 16 16 17 16 15 16 15 15 15 14 14 14 14 12 11 12 12 12 10 10 10 8 8 7 7 7 6 8 9 7 8 9 6 5 6 6 6 6
9 4 8 11 14 11 11 10 8 8 9 6 10 9 9 7 4 2 1 1 3 5 2 0 8 6 5 4 9 7 12 17 11 14 18 16 13 13 16 15 16 17 15 14 14 15 17 17 18 18 18 18 17 16 14 14 15 15 14 14 14 13 11 11 11 12 10 10 9 11 11 10 10 10 8 8 8 8 7 5 6 6 5 6 7 6
5 8 6 5 8 13 11 12 8 13 8 13 3 8 6 5 4 3 3 4 4 3 4 1 2 2 5 7 6 6 13 16 15 16 17 15 14 17 17 15 16 16 17 16 18 17 17 18 20 21 20 18 18 16 14 14 14 16 16 15 15 12 12 11 11 12 12 11 11 11 11 9 9 10 10 9 8 6 6 6 6 6 6 6 6 6
11 8 12 9 7 10 14 15 9 12 12 3 5 8 7 8 7 5 4 3 3 2 10 2 3 2 4 8 5 7 8 8 14 18 17 16 17 19 19 17 17 18 18 17 16 18 19 20 19 18 18 17 15 15 15 15 14 15 15 15 14 14 13 11 13 13 13 12 12 12 10 10 9 8 6 4 4 5 6 7 6 7 6 6 6 7
5 7 9 10 8 11 8 7 10 12 11 5 3 8 6 5 4 7 6 5 3 4 12 8 6 5 6 6 5 0 8 13 16 17 16 17 20 20 19 19 17 15 13 15 17 16 17 17 17 18 16 15 16 15 15 15 14 14 14 15 15 15 12 12 14 14 15 14 11 11 11 12 10 7 5 5 6 6 6 8 7 6 6 6 6 6
2 6 12 10 11 6 6 6 8 11 12 3 5 1 1 4 4 2 4 4 1 11 14 9 8 8 6 8 10 7 8 10 10 10 12 14 16 16 17 18 15 14 15 16 17 16 16 15 16 15 17 18 16 14 14 14 14 14 14 15 16 16 13 13 14 15 15 14 12 12 12 13 11 9 7 7 7 6 6 8 8 7 7 6 6 5
7 3 6 3 9 4 6 4 6 10 11 6 4 5 1 3 2 3 0 1 7 14 7 7 9 10 11 7 7 9 5 11 14 14 16 16 17 18 17 16 16 17 16 16 14 14 14 14 16 16 17 17 17 15 15 15 14 15 14 14 16 15 15 13 14 15 14 13 13 12 13 13 12 10 9 10 10 9 10 9 8 6 6 6 5 6
8 11 2 4 9 14 6 8 5 8 8 10 5 7 9 3 3 6 3 10 14 11 2 4 9 3 16 9 6 9 11 11 11 13 15 17 20 20 20 20 17 18 17 15 16 15 15 17 18 18 18 17 18 17 17 17 16 15 15 16 17 16 15 14 14 15 15 14 14 13 13 12 10 11 11 10 9 8 9 7 6 7 7 6 6 6
6 4 9 7 2 9 11 13 5 6 8 9 10 8 9 6 6 8 7 2 4 3 3 1 5 9 1 6 17 17 14 13 11 13 14 16 20 20 20 18 16 16 16 16 16 16 17 17 17 18 18 18 17 18 18 17 16 15 14 16 17 17 16 14 14 15 15 15 15 13 12 12 11 11 11 10 10 9 8 8 8 8 8 8 8 7
6 5 12 11 6 7 11 12 10 6 8 10 6 10 8 6 4 6 4 11 8 6 5 3 5 6 9 7 10 18 18 13 11 13 14 15 15 16 14 12 14 13 14 15 15 17 18 19 18 18 18 17 17 18 18 16 16 15 15 16 18 17 16 16 16 14 16 14 14 13 12 11 11 11 10 10 9 8 8 8 9 8 7 8 8 9
4 6 3 4 5 4 11 6 7 6 7 9 9 5 5 13 6 4 5 4 3 2 5 4 7 5 7 3 4 9 13 12 12 14 13 14 13 8 8 12 14 15 16 15 15 17 18 17 16 16 16 17 16 18 17 18 17 17 17 17 18 18 17 16 16 15 15 15 13 13 13 13 13 11 9 8 7 8 9 9 9 9 9 8 7 6
4 5 2 12 13 5 6 6 7 11 9 5 8 13 11 7 7 2 2 1 2 2 14 3 5 4 6 6 6 5 7 10 10 13 13 14 12 9 13 15 16 17 17 17 17 17 17 16 16 17 18 17 17 18 19 19 18 19 17 17 18 17 16 17 17 16 14 14 13 14 14 13 12 12 12 12 12 11 9 8 8 8 8 7 7 7
1 10 15 7 9 2 8 10 5 13 6 5 9 10 4 2 4 4 7 1 4 7 7 1 12 2 6 11 0 4 6 12 11 12 14 14 9 11 14 14 16 17 19 21 21 19 18 18 19 17 16 18 19 20 19 19 18 17 17 18 19 18 18 17 16 16 15 14 14 13 14 13 13 13 13 12 11 9 8 7 7 6 6 9 8 7
1 6 6 2 8 6 13 5 4 8 11 10 8 9 11 5 10 8 2 9 7 8 2 4 1 5 10 9 1 6 8 11 12 12 11 12 9 12 14 15 15 16 16 16 17 15 14 15 16 17 19 19 19 18 18 18 17 16 16 17 18 20 19 18 15 14 13 13 11 11 13 14 13 12 11 10 9 8 9 10 9 9 9 7 7 7
1 1 7 1 6 10 8 2 10 7 8 10 8 11 6 5 7 7 10 2 2 5 0 8 1 8 6 6 10 11 12 13 14 12 12 14 14 14 13 13 14 14 15 17 17 17 17 19 20 21 20 20 20 18 17 17 16 18 17 17 17 17 16 16 17 15 15 14 12 12 11 12 12 12 11 11 10 10 11 11 10 10 9 9 7 8
1 0 2 8 10 6 3 3 10 8 9 7 5 5 4 3 2 6 0 6 6 4 4 2 5 3 7 7 10 13 13 13 14 15 14 14 14 14 15 15 14 15 16 17 17 17 19 20 20 19 18 17 15 14 14 16 19 18 16 17 18 18 18 17 17 15 14 13 13 13 13 13 12 13 11 11 11 11 11 10 9 10 9 6 8 8
1 2 3 7 10 3 8 2 8 8 7 4 5 7 7 8 3 8 9 1 5 4 4 3 10 3 8 3 9 12 14 15 15 16 15 15 14 14 15 14 14 15 17 17 18 18 18 19 18 17 15 13 14 16 18 18 17 17 18 17 17 16 16 17 16 15 14 13 13 15 14 14 13 12 11 12 11 12 11 10 10 9 8 10 9 9
1 1 0 7 5 9 16 20 15 10 8 7 2 4 3 3 4 5 8 6 2 7 2 3 3 9 7 6 9 10 10 10 12 12 13 13 12 13 15 16 15 16 17 17 18 17 17 17 16 17 19 19 21 20 19 17 17 17 18 17 16 17 18 17 17 16 14 14 14 15 14 13 12 12 13 13 12 11 11 9 10 9 10 10 9 9
7 1 3 6 7 11 14 14 9 3 6 1 0 4 6 2 3 5 5 6 6 1 6 7 10 10 4 4 7 7 4 6 6 9 13 10 8 9 11 11 12 12 13 14 14 14 14 13 12 12 14 15 14 14 17 18 17 16 17 17 16 18 18 17 15 15 15 14 14 15 13 13 12 13 12 12 12 13 12 11 9 9 11 11 8 9
4 3 3 4 5 6 8 4 3 4 7 5 5 6 5 6 9 7 1 1 5 9 10 8 12 13 3 1 1 2 4 3 4 8 8 10 9 8 12 13 13 14 13 14 15 15 12 11 13 15 16 17 17 17 17 16 17 17 17 16 17 17 17 16 15 15 15 15 15 14 14 14 13 13 14 14 11 11 11 10 9 9 10 10 10 10
3 2 3 3 2 6 9 9 2 8 8 11 6 7 7 9 12 10 4 2 8 5 8 8 9 10 2 3 1 2 3 4 4 4 5 6 6 6 6 9 11 12 14 15 15 13 14 16 17 16 16 15 16 17 16 17 17 17 16 18 17 16 15 15 14 15 14 14 15 14 15 14 13 14 14 14 12 13 12 11 11 11 9 10 11 11
2 1 3 4 5 7 2 3 5 4 7 6 14 15 15 8 3 3 3 3 11 3 7 6 8 14 3 4 5 6 5 8 7 5 7 8 9 9 7 9 12 14 15 17 17 16 14 13 16 18 18 18 18 17 16 17 17 16 16 16 16 15 16 15 15 15 15 15 15 14 15 15 15 14 14 14 14 12 12 12 11 10 11 11 11 10
1 1 3 4 6 9 8 9 10 9 13 14 13 17 15 11 8 5 5 7 2 5 12 4 8 8 17 10 8 9 10 10 6 7 8 7 10 12 12 11 13 14 14 14 13 15 17 18 18 18 18 18 16 15 14 15 16 17 17 17 16 15 15 13 15 15 15 15 15 15 15 15 15 15 15 14 13 13 13 13 12 12 12 11 12 11
2 3 3 5 5 7 7 7 11 11 11 12 14 16 17 16 9 9 9 9 7 8 10 3 6 7 18 14 8 10 9 9 11 12 13 12 9 8 9 11 14 17 17 15 15 17 18 18 16 18 18 17 16 16 16 15 14 13 13 14 15 15 17 16 16 16 16 16 16 16 15 14 13 12 12 12 11 12 12 12 12 12 12 11 11 10
3 4 5 4 5 4 8 9 11 11 9 9 12 14 14 14 15 11 14 13 13 10 7 8 11 14 16 13 5 3 3 7 6 3 3 5 10 11 11 14 17 17 17 17 18 18 18 19 18 18 18 16 17 17 17 15 15 16 17 17 17 16 16 15 16 16 15 16 16 14 13 13 12 12 11 11 12 12 12 12 12 12 12 12 12 11
1 4 1 1 2 4 7 7 6 6 6 10 12 11 11 11 14 15 13 12 9 8 12 16 11 14 5 4 3 3 3 2 3 4 6 6 6 9 12 15 15 15 16 16 16 17 17 17 16 15 15 16 17 18 18 17 17 16 17 16 16 16 16 16 15 15 16 16 14 13 13 12 12 12 13 13 12 12 13 13 11 11 12 12 12 11
3 4 4 1 4 5 3 2 6 7 9 11 12 7 7 9 9 7 1 3 4 7 7 9 8 12 3 13 6 4 7 8 7 9 9 9 7 8 11 12 13 14 15 16 16 16 16 16 15 16 18 18 18 18 17 15 15 15 17 16 17 16 15 15 15 16 15 15 13 13 14 13 13 13 13 13 13 13 13 12 12 12 12 12 12 11
2 3 2 2 0 4 5 2 10 13 6 3 4 4 6 3 7 6 1 6 5 3 3 11 13 3 11 12 6 5 5 8 9 10 10 11 10 7 8 10 13 13 15 16 16 17 17 17 18 19 20 18 18 18 18 17 17 17 17 17 16 13 15 16 16 15 14 14 14 14 14 13 14 14 14 14 14 13 12 13 13 13 12 13 12 11
5 6 5 1 2 4 5 8 8 1 6 6 5 1 3 2 7 10 5 9 7 3 4 4 7 11 11 8 1 3 8 7 5 6 5 7 10 9 5 5 6 8 12 15 17 18 18 16 15 17 19 19 20 21 18 17 18 15 13 12 12 14 14 14 13 14 14 14 14 14 14 14 14 14 14 14 13 13 13 14 14 14 13 12 12 12
5 6 5 2 2 4 5 7 1 5 6 5 7 7 9 2 6 14 10 8 11 11 12 10 10 11 11 6 1 3 4 3 6 10 13 13 11 7 6 6 6 8 9 9 10 11 13 16 16 14 13 13 14 11 11 11 8 9 10 12 14 13 14 14 14 14 14 15 14 13 13 14 14 14 14 14 14 13 14 14 13 13 12 12 13 13
6 6 4 2 3 2 4 1 2 4 2 2 4 6 8 3 7 13 4 7 13 14 12 10 12 11 10 9 7 4 1 3 3 11 15 15 14 11 7 2 6 7 9 10 11 10 11 12 13 15 15 11 12 12 13 12 12 13 13 12 13 12 13 14 14 14 13 14 14 14 14 14 14 14 14 14 13 14 14 13 14 14 13 12 12 11
9 6 5 3 2 3 4 2 7 6 4 3 4 6 10 5 9 7 5 5 12 13 15 14 15 13 12 10 9 9 7 4 6 11 16 17 16 14 9 7 1 6 8 6 8 8 7 7 8 9 9 11 12 13 12 12 12 12 11 12 12 13 13 13 14 14 14 14 14 14 15 15 15 15 14 14 14 14 14 14 14 13 11 12 12 11
9 8 5 3 2 2 1 5 3 1 6 3 3 4 3 4 6 8 2 5 11 18 16 16 15 13 12 11 10 9 4 5 10 9 13 16 15 14 11 9 8 5 5 9 7 9 8 8 9 10 11 11 11 10 10 11 12 12 13 13 12 13 13 13 14 14 14 14 14 15 14 15 15 15 15 14 15 15 14 14 13 13 12 12 12 11
11 10 5 2 2 3 1 2 3 2 1 2 7 10 8 5 8 2 3 1 8 14 18 17 16 15 12 10 9 4 3 5 5 7 10 14 13 13 10 10 10 9 7 4 11 12 11 11 13 12 12 13 12 11 12 13 13 13 13 13 13 14 14 14 14 14 14 14 14 14 14 14 14 14 14 14 15 15 15 15 14 13 12 11 11 12
12 8 7 6 5 4 3 2 4 4 4 4 10 11 12 9 3 5 2 2 13 18 17 17 17 16 13 11 7 12 8 8 5 6 8 11 10 10 10 11 11 11 10 9 8 8 10 11 12 12 13 15 14 14 15 15 14 15 14 14 13 14 15 15 14 14 13 13 13 12 12 12 13 14 14 15 15 13 14 13 11 10 10 10 9 10
7 6 8 8 5 6 7 4 3 5 2 8 11 14 13 8 4 2 2 6 12 15 16 15 15 16 13 11 10 9 8 6 4 5 10 12 13 13 13 12 12 12 12 11 9 7 9 8 10 11 11 10 11 12 13 13 14 13 12 12 12 14 14 12 11 11 12 11 11 11 12 11 12 14 14 14 14 14 13 11 11 11 11 10 10 11
5 3 4 4 5 7 5 4 7 4 0 7 12 10 10 1 5 4 4 6 10 14 15 14 14 15 14 12 9 7 4 6 11 12 14 14 12 14 13 14 14 14 14 12 12 10 9 10 10 10 8 6 10 11 11 12 11 9 10 10 11 9 7 8 10 10 9 10 11 12 12 12 12 13 12 12 11 10 11 11 11 10 11 10 10 12
4 5 3 5 3 2 2 2 1 1 1 12 14 5 13 7 4 4 5 5 8 11 13 13 13 14 14 11 11 9 9 14 14 14 13 14 14 14 15 15 13 13 13 13 13 11 10 11 11 10 8 6 8 9 10 12 11 9 9 9 7 6 6 6 6 7 8 9 10 10 11 11 13 12 10 11 12 12 12 11 11 11 10 11 11 11
5 1 1 1 2 2 2 2 2 3 5 8 9 7 6 7 6 6 6 8 8 9 12 11 12 11 13 12 12 12 13 14 15 14 15 16 17 16 16 16 15 14 12 11 10 10 10 12 10 10 9 8 8 8 10 13 12 10 10 8 4 5 5 6 7 7 9 10 10 10 11 11 12 12 11 12 12 12 12 11 10 10 10 10 10 10
6 3 2 2 2 2 2 3 3 4 5 7 7 8 6 6 8 9 8 6 8 10 11 9 14 15 13 13 12 12 13 13 11 11 11 11 11 14 15 14 13 13 12 11 11 9 10 10 11 10 11 10 10 9 9 10 13 12 10 4 5 6 6 7 7 8 9 8 9 11 11 11 11 12 12 11 12 11 11 11 10 10 9 9 10 10
4 5 1 2 3 8 6 7 2 6 5 6 7 7 7 8 8 10 11 11 10 9 9 10 13 14 14 14 13 12 12 12 13 13 12 11 11 11 12 12 13 13 13 13 12 10 9 9 10 11 11 10 9 9 8 8 10 12 7 5 4 5 5 7 7 7 9 8 8 9 8 10 10 11 11 12 10 11 11 12 12 11 10 10 10 10
3 7 3 3 7 5 3 2 8 8 6 4 6 6 7 6 7 6 8 9 11 12 13 12 11 13 14 12 14 15 13 12 10 10 10 11 13 14 13 11 11 11 10 11 11 9 9 9 10 10 9 10 7 7 7 9 8 7 5 5 4 4 5 6 6 6 6 7 8 8 8 9 8 8 8 9 8 9 9 9 10 10 9 10 9 9
2 9 2 7 8 3 3 7 8 9 2 3 3 5 6 6 8 7 7 8 10 11 13 13 12 13 13 13 14 15 16 13 13 12 9 7 8 10 11 11 11 11 11 9 10 9 8 8 8 7 7 7 5 5 5 6 6 5 5 5 4 4 5 6 6 6 6 6 6 7 8 8 10 9 7 7 7 7 7 7 8 8 9 10 9 10
8 7 4 8 5 8 6 2 10 11 4 5 5 5 5 6 6 7 8 10 12 12 14 16 12 12 14 12 13 13 16 18 15 14 12 8 6 8 9 11 10 9 9 11 10 7 7 6 6 5 6 4 3 4 5 6 5 5 6 5 4 5 6 5 4 4 4 5 5 5 6 7 7 7 6 5 6 6 5 1 2 5 6 6 7 9
6 5 7 6 6 4 2 5 9 8 6 6 8 11 12 8 7 9 5 6 9 11 11 13 14 14 14 11 11 12 13 14 16 15 15 13 11 8 8 9 10 10 10 9 7 8 7 7 6 5 5 4 4 4 5 6 5 5 4 4 4 5 6 5 4 4 2 2 4 5 5 5 5 5 6 7 6 6 6 7 7 5 1 3 5 5
7 9 7 5 4 7 8 11 10 10 12 13 12 12 10 3 3 11 10 4 6 8 9 10 11 12 13 14 9 10 13 14 15 14 14 13 13 12 8 8 10 10 10 10 9 10 8 7 6 6 6 6 5 6 6 6 6 5 4 4 4 5 6 5 5 4 2 1 2 5 5 5 6 6 6 7 8 6 7 5 8 14 12 7 5 5
Wind_Direction
140 182 195 204 210 207 205 205 199 224 114 124 169 179 217 219 270 280 239 230 161 159 223 220 221 221 207 187 188 186 187 195 184 180 187 187 186 188 191 193 196 198 201 187 187 187 188 189 188 188 185 186 184 183 181 181 184 185 185 182 189 186 178 179 180 184 184 187 190 197 200 207 204 201 200 208 207 205 210 215 213 210 211 209 206 194
150 204 224 222 216 207 208 192 190 226 265 227 201 190 232 206 238 245 254 111 201 176 268 228 237 233 217 196 188 182 182 195 192 190 193 190 191 192 192 195 198 202 185 180 188 191 188 189 188 187 187 185 184 187 182 185 186 186 185 189 189 181 182 185 186 186 190 193 194 191 200 200 200 196 199 208 205 206 206 208 210 210 210 207 204 194
190 213 226 218 149 169 174 171 184 205 224 253 229 230 269 258 263 285 265 200 234 149 263 232 219 240 231 201 184 182 191 199 196 192 192 187 191 195 198 199 197 186 186 186 191 190 191 189 188 189 189 190 189 185 186 187 185 185 188 191 185 186 187 189 187 186 194 195 195 193 190 191 196 209 211 208 197 193 199 205 207 208 207 205 208 198
205 232 232 142 170 171 188 172 178 195 213 221 230 224 226 207 162 247 256 77 207 186 232 218 209 243 240 183 196 199 194 200 201 199 197 189 188 193 197 194 192 190 185 189 189 190 190 190 190 191 192 191 188 187 187 185 186 187 191 189 187 189 190 191 190 192 193 189 184 185 163 171 174 183 173 176 158 188 191 209 205 208 203 202 206 199
208 285 158 142 163 185 194 187 178 187 213 216 217 225 228 210 228 185 252 311 302 305 181 96 295 306 250 159 210 224 220 221 213 209 210 212 212 202 193 195 197 193 187 187 189 189 189 191 194 192 191 187 190 190 189 187 186 187 189 189 188 189 191 191 192 191 180 175 171 160 137 141 145 106 153 162 190 197 205 206 202 210 197 196 203 199
244 252 131 157 191 185 193 201 203 179 221 229 230 217 221 219 237 304 323 1 12 342 289 164 263 271 264 212 208 199 187 217 205 200 210 208 203 184 191 201 199 204 196 191 189 189 191 192 190 191 190 191 192 193 191 188 188 186 189 188 188 189 190 192 192 185 176 181 176 168 171 175 184 191 171 190 199 197 200 209 201 189 188 187 196 199
231 199 167 184 174 186 197 211 203 173 217 211 228 191 209 211 186 104 285 106 247 225 273 95 200 266 319 250 227 187 190 210 196 204 211 207 197 196 206 200 197 197 195 196 198 191 187 189 191 193 193 193 193 194 187 186 188 188 187 188 187 188 189 189 186 182 182 182 182 184 190 192 191 193 200 198 199 198 204 187 181 189 180 189 189 196
175 190 178 210 176 177 194 214 197 181 192 235 174 176 172 198 196 175 191 210 241 252 276 275 131 199 292 278 230 196 199 204 200 212 212 204 198 206 209 202 199 198 197 193 195 193 191 190 192 193 194 193 195 188 184 187 187 188 187 185 187 188 187 186 181 184 186 186 186 187 194 197 201 200 206 201 199 186 167 178 179 174 192 187 192 194
173 196 183 191 187 189 201 205 183 180 198 218 146 133 171 182 203 194 183 227 239 14 278 220 152 237 252 267 289 162 208 226 215 213 210 204 203 209 208 205 201 199 196 194 195 195 193 191 192 193 194 196 190 187 187 188 188 188 187 186 186 188 186 183 182 184 190 192 190 188 189 197 206 207 206 173 170 171 170 175 175 183 188 191 194 196
215 181 183 186 181 210 209 197 186 178 213 226 150 162 156 163 179 177 184 194 245 231 254 238 174 221 271 274 293 319 204 212 216 218 215 207 206 207 207 209 204 196 194 197 202 199 196 192 192 194 192 188 193 191 188 187 185 187 186 187 186 189 186 182 184 186 191 193 190 191 191 196 199 196 184 166 176 177 175 181 183 182 182 190 192 198
220 189 170 190 207 193 179 202 175 185 209 135 129 78 100 149 157 128 174 163 194 241 238 228 178 185 264 241 215 191 216 202 217 221 218 215 217 216 214 209 200 193 195 198 199 199 199 194 191 187 189 191 189 190 188 188 188 186 187 187 188 190 186 183 186 187 191 192 192 195 195 195 194 187 177 172 180 171 178 189 187 186 190 186 195 187
236 257 184 221 188 155 161 200 199 188 194 156 164 174 68 296 58 147 279 119 214 249 234 214 184 173 232 261 264 235 223 203 202 209 210 207 209 212 210 208 202 198 197 197 194 194 191 193 194 189 193 190 189 187 187 190 188 188 187 186 188 189 188 186 187 189 192 191 196 198 195 195 193 184 184 188 187 184 190 193 191 185 174 190 187 189
237 223 215 271 187 175 162 190 218 195 187 191 145 148 178 250 135 236 124 219 218 233 243 180 146 213 232 236 242 229 231 234 209 209 210 205 210 209 209 205 201 199 197 189 191 188 189 196 194 193 192 187 189 190 188 188 188 187 188 186 188 191 188 188 186 190 191 192 197 197 195 196 191 189 189 192 192 186 191 187 180 176 193 177 181 195
250 199 218 229 255 192 167 195 160 201 191 186 189 171 173 183 192 215 220 312 317 287 260 122 153 234 134 246 226 239 232 222 214 218 216 210 211 208 207 202 199 199 195 194 192 190 193 196 196 193 190 191 189 189 188 187 187 187 188 188 188 191 188 187 188 190 191 195 197 196 195 193 190 193 191 193 195 191 188 179 185 188 190 190 199 193
219 189 224 196 223 163 197 198 179 170 166 197 184 173 195 183 171 209 188 213 224 217 251 174 166 225 158 250 198 223 233 221 220 218 218 218 217 214 206 198 199 199 199 197 192 194 196 196 192 192 192 192 190 188 187 188 188 186 188 187 189 189 189 188 189 189 192 196 197 196 195 192 192 194 193 195 194 187 185 186 187 192 190 196 203 202
257 282 324 332 341 299 197 203 159 140 175 197 181 170 164 215 117 185 203 166 218 234 263 231 197 181 186 246 265 225 222 217 215 225 223 221 218 191 166 184 193 197 199 197 200 201 200 194 191 192 193 192 190 189 189 188 187 188 189 187 189 189 187 189 190 192 193 196 195 194 193 194 193 194 193 191 189 191 189 189 190 193 194 202 199 203
333 267 314 335 322 307 255 184 191 155 202 188 156 203 206 114 175 222 287 222 101 92 240 94 285 281 299 320 242 226 224 232 219 222 224 226 214 175 186 192 194 195 194 195 201 201 197 193 192 194 193 191 189 189 192 190 187 187 186 186 188 189 188 190 191 191 194 196 194 196 195 194 194 194 193 194 195 193 191 189 195 194 199 195 193 196
54 282 297 312 306 311 8 314 226 185 138 132 190 203 113 115 117 175 224 337 205 213 252 120 223 255 159 246 309 181 197 224 222 223 225 228 205 183 199 198 195 193 194 196 200 199 193 193 193 194 195 193 192 192 191 189 188 188 187 186 186 187 189 191 190 192 193 193 195 195 196 196 197 197 199 198 196 189 182 191 192 189 189 202 200 193
63 315 291 207 239 296 338 314 272 220 163 185 201 140 171 166 195 201 174 229 217 231 273 285 210 232 192 231 174 191 197 220 227 226 224 231 208 203 207 203 200 196 195 197 199 194 189 191 191 193 197 196 194 191 189 187 185 187 189 188 186 187 189 188 189 192 193 192 193 194 195 195 197 199 200 197 190 183 191 194 192 195 202 195 191 190
305 174 298 302 49 312 300 222 216 211 226 206 111 182 169 140 212 163 201 161 130 259 128 274 68 242 213 211 183 198 201 206 212 222 223 219 214 208 208 202 198 192 194 197 197 193 192 193 194 194 193 192 192 188 185 183 185 188 188 186 189 190 187 186 189 189 192 193 193 193 193 196 197 196 196 193 187 190 198 197 193 197 194 198 188 195
340 91 248 292 340 341 280 216 219 190 195 209 198 182 183 217 234 182 249 191 198 192 207 217 269 261 245 209 177 193 200 207 200 209 216 217 216 212 211 202 194 193 196 198 196 196 195 196 196 193 191 191 186 183 180 183 188 189 186 188 187 186 186 188 190 188 193 188 193 191 193 195 194 197 196 194 193 196 199 196 195 197 200 177 194 189
3 30 263 315 343 317 260 314 47 43 37 351 239 207 177 178 164 171 237 119 176 202 224 182 255 267 270 202 186 196 206 197 205 200 209 216 211 207 213 209 195 195 200 199 197 197 198 197 194 189 183 177 179 182 185 186 184 186 189 189 186 186 187 187 187 189 189 189 191 193 194 194 194 195 194 195 196 199 198 196 196 196 184 194 197 189
285 247 4 296 235 274 273 280 278 293 286 253 228 267 214 174 137 174 214 240 158 225 137 171 310 255 246 201 207 198 195 213 204 202 211 217 210 203 211 209 200 197 198 199 198 198 198 195 189 181 179 181 184 186 183 181 184 186 187 186 187 187 189 187 187 187 186 188 190 194 195 192 193 192 195 197 198 200 196 194 196 189 192 199 197 195
311 97 307 286 287 260 263 258 283 279 196 246 226 356 342 302 282 246 216 183 188 223 203 241 253 260 260 213 218 227 210 211 220 195 206 221 215 198 210 216 208 205 206 204 201 200 196 188 177 173 180 183 183 179 182 185 184 183 185 187 185 189 188 186 186 186 186 188 192 192 190 192 192 193 195 197 201 202 200 196 194 190 197 200 196 197
22 287 93 343 351 334 317 39 103 18 45 51 328 321 303 307 355 322 72 93 211 196 193 172 240 254 257 6 281 314 262 245 207 238 224 219 217 198 201 206 203 204 205 201 198 195 182 168 173 182 183 184 184 184 182 180 182 184 185 184 186 189 186 185 184 184 187 188 190 189 190 193 192 194 197 200 199 202 197 196 193 193 198 197 201 203
231 250 84 110 147 196 213 211 113 334 333 312 285 311 331 0 341 1 245 184 220 231 176 205 237 245 199 152 221 210 303 308 272 254 265 247 243 217 200 212 212 205 202 199 198 186 178 181 183 183 184 184 184 183 180 181 182 183 182 185 184 184 183 185 183 184 185 187 189 190 191 192 193 196 198 199 200 200 198 197 199 197 199 199 204 204
240 225 158 174 177 231 278 276 256 241 299 306 309 310 302 316 289 251 268 283 234 182 200 234 220 253 205 241 251 262 200 201 235 256 242 245 246 243 224 211 206 203 202 198 191 187 184 179 184 186 185 185 185 183 180 180 180 180 180 181 183 183 181 181 181 182 185 188 191 190 193 192 194 196 198 199 201 199 198 199 198 196 200 200 204 204
295 339 237 195 224 245 268 279 288 283 282 281 290 292 294 290 291 276 235 238 57 113 249 200 246 259 259 224 210 223 245 257 233 226 243 241 237 228 220 212 209 210 207 198 189 181 181 187 187 186 185 184 184 180 178 180 180 179 178 180 180 179 179 180 182 184 186 187 191 192 194 195 195 197 198 198 198 199 199 200 200 202 203 201 206 207
278 228 239 195 236 239 258 277 278 280 264 268 270 273 280 284 288 261 251 241 276 230 245 224 233 238 260 263 231 214 213 227 234 227 221 227 233 234 231 220 209 205 202 191 188 184 186 186 186 187 185 185 179 177 176 176 177 175 178 177 178 178 182 179 181 184 186 188 191 196 195 195 196 198 197 196 197 199 200 201 201 201 203 205 209 211
302 263 254 251 264 262 270 264 270 262 259 259 256 256 260 272 275 267 256 247 238 257 308 256 231 233 249 266 290 292 204 213 235 270 295 243 228 226 218 215 209 202 195 191 186 186 187 188 185 184 182 178 178 178 175 175 176 177 178 179 179 181 180 174 183 184 186 191 195 195 192 192 192 193 192 193 196 199 201 202 202 201 205 208 210 211
288 274 3 68 298 275 271 270 255 240 264 277 267 269 274 278 280 263 246 248 233 261 254 260 257 259 256 35 342 307 328 294 314 303 274 268 256 218 208 207 202 192 188 190 187 186 187 187 183 177 175 178 180 179 178 179 179 178 178 178 179 180 178 178 181 184 187 193 193 189 189 189 193 190 192 195 197 199 201 203 201 203 207 209 209 209
349 274 357 10 12 302 279 221 268 294 276 246 269 283 295 316 333 336 334 296 194 214 240 256 272 260 330 344 336 346 17 29 0 338 329 313 265 221 206 200 194 188 184 187 187 186 185 182 175 174 179 181 182 180 180 178 175 173 180 179 180 180 174 178 181 185 188 190 186 187 188 191 189 192 196 194 199 199 200 200 201 206 207 208 208 210
219 288 319 309 283 263 259 324 312 310 300 247 234 265 282 294 333 312 275 19 17 264 251 224 239 359 315 306 317 356 32 32 19 359 337 319 300 246 216 201 195 190 186 185 184 184 182 181 179 181 183 180 180 181 183 177 174 182 180 178 178 168 174 180 182 183 185 187 188 189 189 188 190 193 195 197 198 198 197 200 203 205 207 209 208 208
228 249 263 285 161 256 301 317 303 284 192 210 145 91 285 52 16 354 2 12 343 5 258 253 276 298 318 325 38 64 56 38 24 346 334 326 301 286 235 213 207 208 195 188 184 182 182 181 182 183 181 181 183 184 178 176 182 180 171 164 161 172 174 175 179 182 186 187 190 190 188 189 191 195 197 196 197 198 199 201 204 205 206 207 207 210
217 237 246 216 200 276 296 330 170 187 217 145 140 48 13 334 7 346 292 12 2 357 354 346 334 331 318 316 259 95 89 77 29 22 12 358 345 304 227 189 189 185 192 195 192 186 179 180 179 178 177 181 177 167 162 171 152 132 148 162 170 172 171 176 178 182 187 190 190 188 189 190 193 196 197 198 198 199 202 202 205 206 206 206 207 207
203 226 240 235 216 320 7 317 182 204 333 297 173 41 18 100 30 352 312 26 19 10 352 342 333 325 319 303 295 269 10 358 354 32 14 5 356 354 326 208 184 169 180 183 181 178 174 176 175 175 178 161 154 164 169 166 158 159 166 166 166 168 172 175 180 186 187 189 189 190 191 190 193 196 197 198 198 200 203 204 205 206 205 207 211 213
202 223 229 259 176 170 227 184 241 320 309 28 12 5 2 355 340 349 318 320 23 6 358 343 330 333 335 321 298 287 290 289 29 23 6 3 358 351 349 346 332 174 158 165 168 176 169 156 146 140 134 150 162 162 166 158 160 158 154 161 167 170 174 177 184 188 188 190 190 191 191 191 193 196 197 197 198 201 203 204 207 209 205 208 210 211
195 211 203 215 255 184 76 298 334 165 182 197 146 287 323 268 279 274 265 271 16 3 351 346 333 331 332 329 323 300 289 44 28 2 354 354 354 351 351 9 25 36 112 130 118 125 128 127 124 132 137 144 155 156 151 154 155 155 159 165 166 170 177 181 190 189 188 192 192 193 192 193 194 196 197 195 199 201 205 206 207 208 202 205 207 211
196 217 254 221 299 37 355 177 237 193 211 146 308 320 317 319 302 252 225 226 24 355 345 342 333 334 333 333 329 341 64 70 43 4 350 348 348 354 358 17 32 41 44 90 135 136 137 142 143 142 142 145 151 157 152 153 151 155 164 168 172 176 180 188 192 188 191 195 193 192 192 193 195 197 196 197 201 203 205 205 205 206 201 205 209 214
198 199 211 237 243 218 225 255 265 219 246 305 328 321 318 316 27 144 205 76 3 342 340 338 336 332 325 341 6 45 47 84 42 9 349 349 351 7 11 24 31 37 44 54 55 106 125 129 127 138 150 161 165 160 157 155 160 166 170 175 173 178 187 192 192 191 194 195 193 192 192 193 195 198 196 199 204 204 207 206 205 202 199 205 207 214
182 186 202 213 210 231 221 247 281 303 319 346 325 317 319 312 169 118 107 352 340 334 339 334 334 334 336 12 12 57 35 53 63 28 17 14 17 16 21 29 40 45 47 45 54 59 89 98 122 138 147 154 152 156 157 158 163 171 170 167 173 187 191 189 186 188 194 193 191 191 193 193 195 198 201 202 203 203 206 202 204 203 200 202 205 212
168 173 184 202 235 222 211 195 228 237 351 319 328 324 311 224 90 103 13 4 344 335 333 337 336 341 344 21 12 21 14 33 43 32 26 20 21 22 22 27 36 46 45 47 50 58 75 81 86 91 92 118 144 148 152 154 155 150 148 159 178 182 171 174 185 186 186 188 192 193 193 194 197 199 202 204 201 201 207 207 205 203 202 203 205 209
129 163 172 188 216 173 169 235 287 275 308 352 325 332 13 64 42 2 328 356 1 332 336 339 349 345 352 1 3 354 12 36 33 31 29 25 23 20 21 21 23 28 34 36 40 36 59 73 67 66 72 78 114 134 133 127 125 127 135 143 152 147 146 146 140 161 172 185 192 193 194 194 195 197 199 201 199 200 206 203 201 202 199 201 204 208
360 169 44 17 356 251 162 177 179 332 319 335 19 58 50 55 5 14 5 349 347 349 344 341 345 351 355 356 353 357 19 27 26 20 27 23 19 17 18 19 20 24 26 31 38 39 44 64 61 60 51 55 71 100 116 119 118 119 114 123 161 143 135 141 151 162 174 185 191 191 196 196 197 198 199 199 196 199 204 201 199 201 199 200 201 204
11 55 276 234 305 35 308 7 335 304 44 31 50 63 44 38 31 2 8 4 352 347 342 345 347 349 359 359 354 360 21 16 22 22 25 8 8 15 16 12 17 20 21 24 28 30 42 53 58 58 53 47 57 65 79 101 112 106 104 146 155 142 141 150 149 166 184 192 191 192 195 194 198 199 200 200 195 196 201 203 195 199 200 197 201 204
304 354 281 255 344 309 269 258 353 5 30 60 56 57 46 10 19 7 8 358 353 339 343 345 347 344 351 359 359 360 15 8 12 11 13 8 7 1 3 6 8 8 15 20 21 24 35 45 53 56 59 48 44 59 65 71 89 98 118 143 134 138 135 136 146 161 179 188 193 198 194 197 202 202 202 200 197 199 198 198 195 198 198 195 201 202
336 2 8 33 336 353 157 88 18 353 329 88 85 84 74 37 11 354 7 355 337 340 336 349 345 341 344 352 1 355 359 5 9 14 11 11 11 8 5 3 0 8 10 9 7 16 29 42 49 48 52 55 35 56 65 76 78 99 121 114 121 125 128 127 141 155 164 182 186 189 187 194 199 199 202 203 199 200 199 199 199 198 197 195 198 199
3 356 354 2 331 264 310 358 1 322 268 103 93 56 50 34 16 9 6 349 337 334 336 338 350 342 343 354 2 356 344 357 6 4 4 18 8 3 0 1 359 357 1 6 5 13 27 42 54 52 51 48 27 45 68 78 85 101 103 93 90 95 104 105 123 150 169 180 178 183 185 191 193 188 193 192 191 194 195 195 197 195 197 195 193 194
317 325 13 341 301 291 285 9 4 344 127 112 91 71 44 20 359 352 2 353 338 339 337 333 349 341 336 346 355 1 351 346 357 355 346 352 15 15 1 353 356 356 353 2 354 9 28 27 44 58 62 48 22 57 63 61 60 61 72 74 76 88 83 79 73 101 143 162 168 182 186 184 186 183 162 107 78 55 39 358 272 204 196 201 200 198
337 16 342 326 318 308 4 12 15 344 302 291 303 309 321 331 330 318 334 345 330 328 332 332 336 335 329 339 1 354 358 341 346 351 344 339 344 1 10 5 355 355 353 352 347 5 15 25 32 36 46 28 17 46 53 52 47 45 52 68 76 89 88 92 82 74 74 143 165 170 162 151 153 135 129 133 120 113 74 63 82 40 1 157 6 5
343 332 331 321 312 295 312 311 303 284 275 272 283 293 293 269 337 302 298 294 300 301 317 321 324 325 329 331 349 358 349 343 338 343 339 338 335 339 358 17 4 350 352 347 353 0 4 10 18 29 30 14 12 32 33 35 21 24 22 50 77 88 101 102 90 80 66 78 166 167 151 144 140 140 134 141 143 134 130 129 57 46 45 42 37 43